Preview of NWS' New Version of Forecast
This preview is not operational and should not be used for support decisions.

Regional Weather Roundup (RWR)

Issued by National Weather Service (NWS)

                            
000
ASUS43 KBIS 181510
RWRND 

NORTH DAKOTA REGIONAL WEATHER ROUNDUP
NATIONAL WEATHER SERVICE BISMARCK ND
1000 AM CDT THU APR 18 2019

NOTE: "FAIR" INDICATES FEW OR NO CLOUDS BELOW 12,000 FEET WITH NO
SIGNIFICANT WEATHER AND/OR OBSTRUCTIONS TO VISIBILITY.


NDZ001>003-009>011-017-181600-
NORTHWEST NORTH DAKOTA
  
CITY           SKY/WX    TMP DP  RH WIND       PRES   REMARKS
WILLISTON      CLOUDY    38  35  89 CALM      30.05R FOG              
MINOT          FOG       41  39  93 W9        30.00R VSB 1            
MINOT AFB      FOG       40  40 100 NW9       29.99R VSB 1/2          
$$
 
NDZ018>021-031>035-040>046-181600-
SOUTHWEST NORTH DAKOTA
  
CITY           SKY/WX    TMP DP  RH WIND       PRES   REMARKS
BISMARCK       CLOUDY    37  37 100 W7        29.99R FOG              
DICKINSON      SUNNY     46  37  71 NW12      30.00R                  
GARRISON         N/A     37  37 100 NW14      30.00R                  
HETTINGER ARPT SUNNY     50  34  54 N21G28    30.01R                  
$$
 
NDZ004>008-012>016-024-026-027-054-181600-
NORTHEAST NORTH DAKOTA
  
CITY           SKY/WX    TMP DP  RH WIND       PRES   REMARKS
GRAND FORKS    FOG       42  40  92 N9        29.94R VSB 1/2          
GRND FRKS AFB  FOG       39  39 100 N10       29.95R VSB 1/4          
DEVILS LAKE    PTSUNNY   44  40  85 N13       29.97R                  
$$
 
NDZ022-023-025-028>030-036>039-047>053-181600-
SOUTHEAST NORTH DAKOTA
  
CITY           SKY/WX    TMP DP  RH WIND       PRES   REMARKS
FARGO          MOSUNNY   45  41  86 N15       29.90R                  
JAMESTOWN      CLOUDY    45  42  89 N13       29.94R                  
$$